This demonstration page uses our WeatherBlox Daily Observations layout. Learn more.

Left ArrowRight Arrow

39.92423, -83.80882

Hourly Observations for September 7, 2020

Temp ( °F °C ) Dew Point ( °F °C ) Humidity (%) Winds ( mph kmh ) Pressure ( in mb ) Visibility ( mi km ) Precip ( " mm )
12:56 am 00:56 Clear 67 19.4 62 16.7 84 84 S 6 9 30.01 1016 10 16 N/A
1:56 am 01:56 Clear 66 18.9 62 16.7 87 87 SSW 8 13 29.98 1015 10 16 N/A
2:56 am 02:56 Clear 66 18.9 61 16.1 84 84 SSW 7 11 29.96 1015 10 16 N/A
3:56 am 03:56 Clear 65 18.3 60 15.6 84 84 SSW 8 13 29.94 1014 10 16 N/A
4:56 am 04:56 Clear 64 17.8 59 15 84 84 SSW 7 11 29.91 1013 10 16 N/A
5:56 am 05:56 Clear 65 18.3 59 15 81 81 SW 9 15 29.92 1013 10 16 N/A
6:56 am 06:56 Clear 65 18.3 59 15 81 81 SW 8 13 29.92 1013 10 16 N/A
7:56 am 07:56 Sunny 66 18.9 59 15 78 78 SSW 8 13 29.93 1014 10 16 N/A
8:56 am 08:56 Cloudy 69 20.6 60 15.6 73 73 SSW 13 20 29.93 1013 10 16 N/A
9:56 am 09:56 Mostly Sunny 73 22.8 63 17.2 71 71 SW 14 22 29.93 1013 10 16 N/A
10:56 am 10:56 Sunny 76 24.4 64 17.8 67 67 SW 14 22 29.92 1013 10 16 N/A
11:56 am 11:56 Sunny 80 26.7 66 18.9 62 62 SW 13 20 29.91 1013 10 16 N/A
12:56 pm 12:56 Sunny 83 28.3 67 19.4 59 59 WSW 16 26 29.90 1012 10 16 N/A
1:56 pm 13:56 Mostly Cloudy 83 28.3 67 19.4 59 59 SW 17 28 29.88 1012 10 16 N/A
2:56 pm 14:56 Sunny 87 30.6 68 20 53 53 WSW 17 28 29.85 1011 10 16 N/A
3:56 pm 15:56 Mostly Cloudy 84 28.9 68 20 59 59 SSW 10 17 29.86 1011 10 16 N/A
4:56 pm 16:56 Mostly Sunny 84 28.9 69 20.6 61 61 SSW 10 17 29.84 1011 10 16 N/A
5:56 pm 17:56 Cloudy 82 27.8 69 20.6 65 65 SW 10 17 29.87 1011 10 16 N/A
6:23 pm 18:23 Cloudy with Nearby Thunderstorms 81 27 70 21 70 70 SSW 7 11 29.84 1010 10 16 N/A
6:56 pm 18:56 Cloudy with Nearby Thunderstorms 70 21.1 69 20.6 97 97 ENE 8 13 29.92 1013 10 16 0.00 0.00
7:20 pm 19:20 Cloudy with Nearby Thunderstorms 70 21 70 21 100 100 undefined N/A 29.90 1012 10 16 0.00 0.00
7:56 pm 19:56 Cloudy with Thunderstorms 68 20 68 20 100 100 E 8 13 29.94 1014 9 14 0.02 0.51
8:08 pm 20:08 Mostly Cloudy with Light Rain 68 20 68 20 100 100 E 13 20 29.91 1013 10 16 0.00 0.00
8:56 pm 20:56 Clear 67 19.4 67 19.4 100 100 SE 7 11 29.94 1014 10 16 0.00 0.00
9:06 pm 21:06 Partly Cloudy with Nearby Thunderstorms 68 20 68 20 100 100 SSE 8 13 29.93 1014 9 14 N/A
9:46 pm 21:46 Mostly Cloudy with Light Rain 70 21 70 21 100 100 SSE 12 19 29.90 1012 10 16 0.01 0.25
9:56 pm 21:56 Mostly Cloudy with Light Rain 69 20.6 69 20.6 100 100 SSE 10 17 29.92 1013 10 16 0.01 0.25
10:56 pm 22:56 Partly Cloudy 70 21.1 69 20.6 97 97 SSE 8 13 29.95 1014 10 16 0.00 0.00
11:56 pm 23:56 Mostly Cloudy 69 20.6 69 20.6 100 100 ESE 7 11 29.96 1015 10 16 N/A

Powered by AerisWeather